When you browse on this site, cookies collect data to enhance your experience and personalize the content and advertising you see.
Visit our Privacy Policy to learn more. By continuing to use the site, you agree to this use of cookies and data.
  • In Portugal
  • List of Countries
  • For 7 days
  • Water Temperature
  • Satellite Maps
  • Weather Map
  • Weather Widgets
  • user-avatar
    Login

    Hourly Weather Haradok

    Today, 18 February, Monday

    Time Temperature Precipitation Wind Pressure Humidity
    00:00 -4°C° 0 mm 3 mps 750 mmHg 88%
    01:00 -4°C° 0 mm 3 mps 751 mmHg 89%
    02:00 -4°C° 0 mm 2 mps 751 mmHg 93%
    03:00 -5°C° 0 mm 2 mps 751 mmHg 94%
    04:00 -5°C° 0 mm 2 mps 752 mmHg 94%
    05:00 -5°C° 0 mm 2 mps 752 mmHg 95%
    06:00 -5°C° 0 mm 2 mps 753 mmHg 94%
    07:00 -6°C° 0 mm 2 mps 753 mmHg 94%
    08:00 -6°C° 0 mm 2 mps 754 mmHg 94%
    09:00 -4°C° 0 mm 2 mps 754 mmHg 88%
    10:00 -3°C° 0 mm 2 mps 754 mmHg 82%
    11:00 0°C° 0 mm 1 mps 755 mmHg 77%
    12:00 +1°C° 0 mm 1 mps 755 mmHg 73%
    13:00 +1°C° 0 mm 1 mps 755 mmHg 70%
    14:00 +2°C° 0 mm 1 mps 755 mmHg 67%
    15:00 +1°C° 0 mm 1 mps 755 mmHg 70%
    16:00 0°C° 0 mm 1 mps 754 mmHg 73%
    17:00 -1°C° 0 mm 1 mps 754 mmHg 76%
    18:00 -1°C° 0 mm 1 mps 754 mmHg 78%
    19:00 -4°C° 0 mm 2 mps 754 mmHg 80%
    20:00 -4°C° 0 mm 2 mps 754 mmHg 82%
    21:00 -4°C° 0 mm 2 mps 754 mmHg 82%
    22:00 -5°C° 0 mm 2 mps 754 mmHg 82%
    23:00 -6°C° 0 mm 3 mps 754 mmHg 82%

    Tomorrow, 19 February, Tuesday

    Time Temperature Precipitation Wind Pressure Humidity
    00:00 -6°C° 0 mm 3 mps 753 mmHg 81%
    01:00 -6°C° 0 mm 3 mps 753 mmHg 80%
    02:00 -7°C° 0 mm 4 mps 753 mmHg 80%
    03:00 -7°C° 0 mm 4 mps 752 mmHg 80%
    04:00 -7°C° 0 mm 4 mps 752 mmHg 80%
    05:00 -7°C° 0 mm 4 mps 751 mmHg 81%
    06:00 -5°C° 0 mm 4 mps 751 mmHg 81%
    07:00 -5°C° 0 mm 4 mps 751 mmHg 81%
    08:00 -5°C° 0 mm 4 mps 750 mmHg 81%
    09:00 -5°C° 0 mm 5 mps 750 mmHg 80%
    10:00 -4°C° 0 mm 5 mps 749 mmHg 79%
    11:00 -2°C° 0 mm 5 mps 748 mmHg 77%
    12:00 -1°C° 0 mm 5 mps 748 mmHg 79%
    13:00 0°C° 0 mm 5 mps 747 mmHg 80%
    14:00 0°C° 0 mm 5 mps 747 mmHg 81%
    15:00 0°C° 0 mm 5 mps 746 mmHg 83%
    16:00 0°C° 0 mm 5 mps 745 mmHg 85%
    17:00 -1°C° 0 mm 5 mps 744 mmHg 87%
    18:00 -1°C° 0 mm 5 mps 744 mmHg 88%
    19:00 -1°C° 0 mm 5 mps 743 mmHg 89%
    20:00 -1°C° 0 mm 5 mps 743 mmHg 90%
    21:00 -1°C° 0 mm 5 mps 742 mmHg 90%
    22:00 -1°C° 0 mm 5 mps 742 mmHg 90%
    23:00 -1°C° 0 mm 5 mps 741 mmHg 90%

    Day after tomorrow, 20 February, Wednesday

    Time Temperature Precipitation Wind Pressure Humidity
    00:00 -1°C° 0 mm 5 mps 741 mmHg 90%
    01:00 -1°C° 0 mm 5 mps 740 mmHg 90%
    02:00 -1°C° 0 mm 5 mps 740 mmHg 90%
    03:00 -1°C° 0 mm 5 mps 740 mmHg 91%
    04:00 0°C° 0 mm 4 mps 740 mmHg 92%
    05:00 0°C° 0 mm 4 mps 739 mmHg 93%
    06:00 0°C° 0 mm 5 mps 739 mmHg 92%
    07:00 0°C° 0 mm 5 mps 740 mmHg 92%
    08:00 0°C° 0 mm 5 mps 740 mmHg 92%
    09:00 0°C° 0 mm 5 mps 740 mmHg 88%
    10:00 +1°C° 0 mm 5 mps 740 mmHg 85%
    11:00 +1°C° 0 mm 6 mps 740 mmHg 82%
    12:00 +1°C° 0.1 mm 6 mps 740 mmHg 81%
    13:00 +1°C° 0.1 mm 6 mps 740 mmHg 80%
    14:00 +1°C° 0.1 mm 6 mps 740 mmHg 80%
    15:00 +1°C° 0.1 mm 5 mps 740 mmHg 80%
    16:00 +1°C° 0.1 mm 5 mps 740 mmHg 81%
    17:00 0°C° 0.1 mm 5 mps 740 mmHg 82%
    18:00 0°C° 0.1 mm 5 mps 740 mmHg 83%
    19:00 0°C° 0.1 mm 5 mps 739 mmHg 85%
    20:00 0°C° 0.1 mm 5 mps 739 mmHg 86%
    21:00 -2°C° 0.1 mm 6 mps 740 mmHg 82%
    22:00 -4°C° 0.1 mm 6 mps 740 mmHg 78%
    23:00 -5°C° 0.1 mm 6 mps 740 mmHg 74%

    21 February, Thursday

    Time Temperature Precipitation Wind Pressure Humidity
    00:00 -5°C° 0.1 mm 6 mps 741 mmHg 73%
    01:00 -5°C° 0.1 mm 6 mps 741 mmHg 72%
    02:00 -5°C° 0.1 mm 6 mps 742 mmHg 71%
    03:00 -5°C° 0 mm 6 mps 742 mmHg 71%
    04:00 -6°C° 0 mm 6 mps 743 mmHg 70%
    05:00 -6°C° 0 mm 6 mps 743 mmHg 69%
    06:00 -6°C° 0 mm 6 mps 743 mmHg 68%
    07:00 -8°C° 0 mm 7 mps 744 mmHg 67%
    08:00 -8°C° 0 mm 7 mps 744 mmHg 66%
    09:00 -8°C° 0 mm 7 mps 745 mmHg 63%
    10:00 -8°C° 0 mm 7 mps 745 mmHg 61%
    11:00 -7°C° 0 mm 7 mps 746 mmHg 58%
    12:00 -7°C° 0 mm 7 mps 746 mmHg 58%
    13:00 -7°C° 0 mm 7 mps 747 mmHg 57%
    14:00 -7°C° 0 mm 7 mps 748 mmHg 57%
    15:00 -6°C° 0 mm 6 mps 748 mmHg 58%
    16:00 -6°C° 0 mm 6 mps 749 mmHg 59%
    17:00 -7°C° 0 mm 5 mps 749 mmHg 61%
    18:00 -7°C° 0 mm 5 mps 750 mmHg 62%
    19:00 -7°C° 0 mm 5 mps 751 mmHg 63%
    20:00 -8°C° 0 mm 5 mps 751 mmHg 65%
    21:00 -8°C° 0 mm 5 mps 752 mmHg 66%
    22:00 -8°C° 0 mm 4 mps 753 mmHg 67%
    23:00 -8°C° 0 mm 4 mps 753 mmHg 67%

    22 February, Friday

    Time Temperature Precipitation Wind Pressure Humidity
    00:00 -9°C° 0 mm 4 mps 754 mmHg 67%
    01:00 -10°C° 0 mm 5 mps 755 mmHg 66%
    02:00 -10°C° 0 mm 5 mps 755 mmHg 65%
    03:00 -11°C° 0 mm 5 mps 756 mmHg 65%
    04:00 -11°C° 0 mm 5 mps 757 mmHg 66%
    05:00 -11°C° 0 mm 5 mps 758 mmHg 67%
    06:00 -12°C° 0 mm 5 mps 758 mmHg 68%
    07:00 -12°C° 0 mm 5 mps 759 mmHg 68%
    08:00 -11°C° 0 mm 4 mps 760 mmHg 69%
    09:00 -10°C° 0 mm 4 mps 761 mmHg 66%
    10:00 -9°C° 0 mm 4 mps 761 mmHg 64%
    11:00 -8°C° 0 mm 4 mps 762 mmHg 61%
    12:00 -8°C° 0 mm 4 mps 762 mmHg 60%
    13:00 -7°C° 0 mm 4 mps 763 mmHg 59%
    14:00 -5°C° 0 mm 4 mps 763 mmHg 59%
    15:00 -7°C° 0 mm 4 mps 763 mmHg 61%
    16:00 -6°C° 0 mm 3 mps 764 mmHg 62%
    17:00 -6°C° 0 mm 3 mps 764 mmHg 64%
    18:00 -6°C° 0 mm 3 mps 765 mmHg 66%
    19:00 -7°C° 0 mm 3 mps 765 mmHg 68%
    20:00 -6°C° 0 mm 2 mps 765 mmHg 70%
    21:00 -7°C° 0 mm 2 mps 765 mmHg 71%
    22:00 -7°C° 0 mm 2 mps 765 mmHg 71%
    23:00 -7°C° 0 mm 2 mps 765 mmHg 71%

    23 February, Saturday

    Time Temperature Precipitation Wind Pressure Humidity
    00:00 -7°C° 0 mm 2 mps 765 mmHg 70%
    01:00 -7°C° 0 mm 2 mps 765 mmHg 68%
    02:00 -7°C° 0 mm 2 mps 764 mmHg 67%
    03:00 -8°C° 0 mm 3 mps 764 mmHg 63%
    04:00 -8°C° 0 mm 4 mps 763 mmHg 59%
    05:00 -8°C° 0 mm 4 mps 762 mmHg 56%
    06:00 -8°C° 0.3 mm 5 mps 761 mmHg 66%
    07:00 -8°C° 0.3 mm 5 mps 760 mmHg 76%
    08:00 -9°C° 0.3 mm 6 mps 759 mmHg 86%
    09:00 -8°C° 0.7 mm 6 mps 758 mmHg 87%
    10:00 -8°C° 0.7 mm 6 mps 758 mmHg 89%
    11:00 -8°C° 0.7 mm 6 mps 757 mmHg 91%
    12:00 -6°C° 0.3 mm 6 mps 756 mmHg 89%
    13:00 -5°C° 0.3 mm 5 mps 755 mmHg 87%
    14:00 -4°C° 0.3 mm 5 mps 754 mmHg 86%
    15:00 -4°C° 0.1 mm 5 mps 753 mmHg 87%
    16:00 -2°C° 0.1 mm 5 mps 753 mmHg 89%
    17:00 -1°C° 0.1 mm 5 mps 752 mmHg 90%
    18:00 -1°C° 0 mm 5 mps 752 mmHg 92%
    19:00 0°C° 0 mm 5 mps 752 mmHg 93%
    20:00 0°C° 0 mm 4 mps 752 mmHg 95%
    21:00 0°C° 0 mm 4 mps 752 mmHg 95%
    22:00 0°C° 0 mm 4 mps 752 mmHg 95%
    23:00 0°C° 0 mm 4 mps 753 mmHg 95%
    Show more